Location: Raitis
(47.2167°N, 11.3833°E)
Time: 04:34:36
(UTC+00:00)

SeaSat 1 - Pass Details

Date: 03 March 2021
Orbit: 744 x 747 km, 108.0° (Epoch: 22 April)

Event Time Altitude Azimuth Distance (km) Brightness Sun altitude
Rises 19:33:04 0° 22° (NNE) 3,201 5.7 -26.0°
Reaches altitude 10° 19:35:31 10° 13° (NNE) 2,274 5.0 -26.3°
Maximum altitude 19:39:54 33° 310° (NW) 1,246 4.1 -27.0°
Drops below altitude 10° 19:44:16 10° 248° (WSW) 2,264 5.5 -27.7°
Sets 19:46:42 0° 239° (WSW) 3,185 6.2 -28.1°
